sat.trackr.live / text

‹ back to catalog

YAOGAN-39 04B

NORAD 58143 · 2023-163C

PAYLOAD ACTIVE UNKNOWN

§ Identity

Operator
Country
PRC
Launch date
2023-10-23
Launch site
XICLF
Launch vehicle
Mass (kg)
RCS (m²)

External: N2YO · Heavens-Above · Gunter

§ Orbital elements

Epoch: 2026-09-21T22:38:11.946048Z

Period
94.94 min
Inclination
34.9928°
Eccentricity
0.0009943
Mean motion
15.16728913 rev/d
Perigee alt
508.9 km
Apogee alt
522.6 km
Semi-major
6,893.9 km
B*
1.7376e-4
RAAN
125.9919°
Arg perigee
346.8114°
Mean anomaly
13.2338°
Rev number
16,201

§ Raw data

YAOGAN-39 04B1 58143U 23163C   26264.94319382  .00003457  00000+0  17376-3 0  99902 58143  34.9928 125.9919 0009943 346.8114  13.2338 15.16728913162019

JSON: /api/v1/satellites/58143 · /tle

For live sub-satellite position, see the globe view (requires WebGL).

§ Visibility from observer

Set your observer location to see the next 7 days of passes ≥ 10°. The values pass through the URL so the page stays shareable.

No JS? Fill the form by hand. The geolocation button needs JavaScript.